COSMOS 2251 DEB, 38481

Orbit data source: Space-Track

COSMOS 2251 DEB, 38481 is space debris in LEO originally from a launch on Wed, 16 Jun 1993 UTC launched from the Plesetsk Missile And Space Complex (PKMTR). The debris from Iridium 33, an American commercial communications satellite, has been tracked extensively since its accidental collision with the defunct Russian satellite Cosmos 2251 in 2009. This event, occurring at high speed in low Earth orbit (LEO), generated thousands of pieces of space debris, significantly increasing the risk of further collisions. The Iridium 33 debris cloud has impacted space traffic management and orbital debris mitigation strategies, making it a subject of ongoing study in space situational awareness.

Loading next visibility...
Identifier
38481, 1993-036BTR
Orbit
LEO
Country
Flag of CISCIS
Related business
Manufacturer
Unknown
Mission
Spacecraft
Bus & Motor
Unknown
Mass
Unknown
Launch date (UTC)
1993-06-16 (33 years ago)
Launch vehicle
Unknown
Launch site
Plesetsk Missile And Space Complex (PKMTR)
Object type
Payload
Rocket body
Debris
Shape & HBR
Unknown shape, 0.1 m
Radar Cross Section
Small (<0.1 m²)

Expand to show TLE details & history
Last TLE update: 4 days ago

TLE from 4 days ago
0 COSMOS 2251 DEB
1 38481U 93036BTR 26058.73166242  .00002616  00000-0  15662-2 0  9994
2 38481  73.9303 234.4494 0230165 159.5246 201.5301 13.95198321601348
Epoch: 2026-02-27T17:33Z
TLE epoch observation values (Epoch: 2026-02-27T17:33:35.633Z)
Latitude
-0.00006°
Longitude
173.48699°
Altitude
1,069.611 km
Speed
7.238 km/s
True Right ascension
15h 37m 47s
True Declination
0° 00' 00"
Sunlit
Object was in daylight at epoch
Visualization orbit readout
Latitude
Unknown
Longitude
Unknown
Altitude
Unknown
Speed
Unknown
Apparent Right ascension
Unknown
Apparent Declination
Unknown
Sunlit
N/A
Visualization observer readout
Local Sidereal Time
18:11:58
Azimuth
Unknown
Elevation
Unknown
Doppler factor
Unknown
Orbital elements
Apogee altitude
1,075.851 km
Perigee altitude
740.442 km
Semi-major axis
7,286.284 km
Eccentricity
0.02302
Inclination
73.9303°
RAAN
234.4494°
Arg. of periapsis
159.5246°
True anomaly
200.58746°
Mean anomaly
201.5301°
Eccentric anomaly
201.05629°
Mean motion
3.48967 °/min
Orbital period
103.16 mins
BSTAR
0.0015662
Loading maneuver chart data...
Computing Atmospheric mass density...

Documentation

Showing up to 5 results
|